Agadir Al Massira, Morocco

12:01 AM WET on December 18, 2017 (GMT +0000)
Agadir Al Massira

Weather History for GMAD - March, 2013

Change the Weather History Date:

Tuesday, March 19, 2013

  Actual Average Record
Temperature  
Mean Temperature 64 °F -  
Max Temperature 72 °F - - ()
Min Temperature 57 °F - - ()
Growing Degree Days 14 (Base 50)    
Moisture  
Dew Point 58 °F    
Average Humidity 81    
Maximum Humidity 94    
Minimum Humidity 53    
Precipitation  
Precipitation 0.35 in - - ()
Sea Level Pressure  
Sea Level Pressure 29.87 in    
Wind  
Wind Speed 4 mph ()    
Max Wind Speed 16 mph    
Max Gust Speed -    
Visibility 5.9 miles    
Events Rain    
T = Trace of Precipitation, MM = Missing Value Source: Averaged Metar Reports

Daily Weather History Graph

Daily Weather History Graph

Search for Another Location

Airport or City:

Trip Planner

Search our weather history database for the weather conditions in past years. The results will help you decide how hot, cold, wet, or windy it might be!

Date:

Astronomy

Mar. 19, 2013 Rise Set
Actual Time 6:42 AM WET 6:48 PM WET
Civil Twilight 6:18 AM WET 7:12 PM WET
Nautical Twilight 5:50 AM WET 7:40 PM WET
Astronomical Twilight 5:22 AM WET 8:08 PM WET
Moon 11:44 AM WET (3/19) 1:02 AM WET (3/19)
Length of Visible Light 12h 53m
Length of Day
12h 05m
Waxing Crescent, 48% of the Moon is Illuminated
Mar 19
Waxing Crescent
Mar 19
First Quarter
Mar 27
Full
Apr 3
Last Quarter
Apr 10
New

Hourly Weather History & Observations

Time (WET) Temp. Dew Point Humidity Pressure Visibility Wind Dir Wind Speed Gust Speed Precip Events Conditions
12:00 AM 62 °F 59 °F 87% 29.88 in 6 mi Calm Calm - -   Scattered Clouds
12:00 AM 62.6 °F 59.0 °F 88% 29.86 in 6.2 mi Calm Calm - N/A   Scattered Clouds
1:00 AM 59.0 °F 57.2 °F 94% 29.86 in 6.2 mi Calm Calm - N/A   Scattered Clouds
2:00 AM 59.0 °F 57.2 °F 94% 29.86 in - Calm Calm - N/A   Scattered Clouds
3:00 AM 59 °F 57 °F 91% 29.85 in 6 mi Calm Calm - -   Scattered Clouds
3:00 AM 59.0 °F 57.2 °F 94% 29.83 in 6.2 mi Calm Calm - N/A   Scattered Clouds
4:00 AM 59.0 °F 57.2 °F 94% 29.83 in 6.2 mi East 4.6 mph - N/A   Scattered Clouds
5:00 AM 59.0 °F 57.2 °F 94% 29.83 in 6.2 mi Calm Calm - N/A   Scattered Clouds
6:00 AM 60 °F 58 °F 91% 29.84 in 6 mi East 3.5 mph - -   Partly Cloudy
6:00 AM 60.8 °F 59.0 °F 94% 29.83 in 6.2 mi East 3.5 mph - N/A   Mostly Cloudy
7:00 AM 60.8 °F 59.0 °F 94% 29.83 in 6.2 mi Calm Calm - N/A   Mostly Cloudy
8:00 AM 62.6 °F 59.0 °F 88% 29.86 in 6.2 mi Calm Calm - N/A   Scattered Clouds
9:00 AM 65 °F 60 °F 78% 29.87 in 6 mi Calm Calm - -   Mostly Cloudy
9:00 AM 64.4 °F 59.0 °F 83% 29.86 in 6.2 mi Calm Calm - N/A   Scattered Clouds
10:00 AM 68.0 °F 57.2 °F 68% 29.89 in 6.2 mi WSW 6.9 mph - N/A   Scattered Clouds
11:00 AM 69.8 °F 57.2 °F 64% 29.89 in 6.2 mi WSW 10.4 mph - N/A   Scattered Clouds
12:00 PM 71 °F 57 °F 53% 29.89 in 6 mi West 12.7 mph - -   Mostly Cloudy
12:00 PM 69.8 °F 57.2 °F 64% 29.89 in 6.2 mi West 12.7 mph - N/A   Scattered Clouds
1:00 PM 71.6 °F 57.2 °F 60% 29.89 in 6.2 mi WSW 13.8 mph - N/A   Scattered Clouds
2:00 PM 69.8 °F 59.0 °F 68% 29.86 in 6.2 mi West 16.1 mph - N/A   Scattered Clouds
3:00 PM 70 °F 58 °F 56% 29.86 in 6 mi West 13.8 mph - -   Mostly Cloudy
4:00 PM 69.8 °F 57.2 °F 64% 29.86 in 6.2 mi WSW 12.7 mph - N/A   Scattered Clouds
5:00 PM 68.0 °F 57.2 °F 68% 29.86 in 6.2 mi West 13.8 mph - N/A   Scattered Clouds
6:00 PM 67 °F 57 °F 62% 29.89 in 6 mi WSW 11.5 mph - -   Mostly Cloudy
6:00 PM 66.2 °F 57.2 °F 73% 29.89 in 6.2 mi WSW 11.5 mph - N/A   Scattered Clouds
7:00 PM 64.4 °F 59.0 °F 83% 29.89 in 6.2 mi West 10.4 mph - N/A   Scattered Clouds
8:00 PM 64.4 °F 59.0 °F 83% 29.89 in 3.7 mi West 6.9 mph - N/A   Mostly Cloudy
9:00 PM 63 °F 60 °F 86% 29.94 in 6 mi SW 6.9 mph - -   Overcast
9:00 PM 62.6 °F 60.8 °F 94% 29.92 in 6.2 mi SW 6.9 mph - N/A   Mostly Cloudy
10:00 PM 62.6 °F 60.8 °F 94% 29.92 in 5.0 mi SW 6.9 mph - N/A   Mostly Cloudy
11:00 PM 60.8 °F 59.0 °F 94% 29.95 in 3.1 mi Calm Calm - N/A Rain Light Rain